| time (UTC) | temp C | wind direction | speed KPH | gust KPH | rain 1hr cm | rain 24hr cm | rain mn cm | humidity % | barometer mb |
| 20260506090211 | 14 | 245 | 0.0 | 0.0 | 0.00 | 0.00 | 0.00 | 69 | 1004.1 |
| 20260506083211 | 13 | 245 | 0.0 | 0.0 | 0.00 | 0.00 | 0.00 | 80 | 1003.9 |
| 20260506080212 | 12 | 245 | 0.0 | 0.0 | 0.00 | 0.00 | 0.00 | 83 | 1004.0 |
| 20260506073211 | 11 | 245 | 0.0 | 0.0 | 0.00 | 0.00 | 0.00 | 86 | 1004.2 |
| 20260506070212 | 11 | 245 | 4.8 | 0.0 | 0.00 | 0.00 | 0.00 | 87 | 1004.3 |
| 20260506060210 | 9 | 245 | 0.0 | 0.0 | 0.00 | 0.00 | 0.00 | 93 | 1004.1 |
| 20260506050211 | 6 | 245 | 0.0 | 0.0 | 0.00 | 0.00 | 0.00 | 93 | 1004.6 |
| 20260506043211 | 6 | 245 | 0.0 | 0.0 | 0.00 | 0.00 | 0.00 | 92 | 1004.7 |
| 20260506040211 | 6 | 245 | 0.0 | 0.0 | 0.00 | 0.00 | 0.00 | 91 | 1005.0 |
| 20260506033211 | 6 | 245 | 0.0 | 0.0 | 0.00 | 0.00 | 0.00 | 91 | 1005.2 |
| 20260506030212 | 7 | 245 | 0.0 | 0.0 | 0.00 | 0.00 | 0.00 | 91 | 1005.5 |
| 20260506023211 | 7 | 245 | 0.0 | 0.0 | 0.00 | 0.00 | 0.00 | 91 | 1005.8 |
| 20260506020212 | 8 | 245 | 0.0 | 0.0 | 0.00 | 0.00 | 0.00 | 90 | 1005.9 |
| 20260506013211 | 8 | 245 | 0.0 | 0.0 | 0.00 | 0.00 | 0.00 | 90 | 1006.1 |
| 20260506010213 | 8 | 245 | 0.0 | 0.0 | 0.00 | 0.00 | 0.00 | 90 | 1006.4 |
| 20260506003209 | 9 | 245 | 0.0 | 0.0 | 0.00 | 0.00 | 0.00 | 87 | 1006.2 |
| 20260506000211 | 10 | 245 | 0.0 | 0.0 | 0.00 | 0.00 | 0.00 | 89 | 1006.4 |
| 20260505233209 | 9 | 245 | 3.2 | 0.0 | 0.00 | 0.00 | 0.00 | 90 | 1006.7 |
| 20260505230209 | 9 | 245 | 0.0 | 0.0 | 0.00 | 0.00 | 0.00 | 88 | 1006.8 |
| 20260505223210 | 10 | 245 | 0.0 | 0.0 | 0.00 | 0.00 | 0.00 | 87 | 1007.0 |
| 20260505220209 | 10 | 245 | 0.0 | 0.0 | 0.00 | 0.00 | 0.05 | 86 | 1006.8 |
| 20260505213211 | 11 | 245 | 1.6 | 0.0 | 0.00 | 0.00 | 0.05 | 84 | 1006.8 |
| 20260505210215 | 11 | 245 | 11.3 | 0.0 | 0.00 | 0.00 | 0.05 | 82 | 1007.0 |
| 20260505203209 | 12 | 245 | 11.3 | 0.0 | 0.00 | 0.00 | 0.05 | 82 | 1006.8 |
| 20260505200210 | 12 | 245 | 8.0 | 0.0 | 0.00 | 0.00 | 0.05 | 81 | 1006.8 |
| 20260505193209 | 12 | 245 | 14.5 | 0.0 | 0.00 | 0.00 | 0.05 | 80 | 1006.6 |
| 20260505190215 | 13 | 251 | 14.5 | 0.0 | 0.00 | 0.00 | 0.05 | 82 | 1006.3 |
| 20260505183212 | 13 | 251 | 14.5 | 0.0 | 0.00 | 0.00 | 0.05 | 81 | 1005.8 |
| 20260505180211 | 15 | 251 | 11.3 | 0.0 | 0.00 | 0.00 | 0.03 | 72 | 1005.5 |
| 20260505173210 | 15 | 251 | 8.0 | 0.0 | 0.00 | 0.00 | 0.03 | 68 | 1005.3 |
| 20260505170210 | 16 | 258 | 17.7 | 0.0 | 0.00 | 0.00 | 0.03 | 61 | 1005.0 |
| 20260505163211 | 18 | 294 | 3.2 | 0.0 | 0.00 | 0.00 | 0.03 | 59 | 1004.8 |
| 20260505153210 | 17 | 294 | 0.0 | 0.0 | 0.00 | 0.00 | 0.03 | 61 | 1004.7 |
| 20260505150216 | 16 | 294 | 0.0 | 0.0 | 0.00 | 0.00 | 0.03 | 63 | 1004.9 |
| 20260505140210 | 15 | 294 | 6.4 | 0.0 | 0.00 | 0.00 | 0.03 | 75 | 1005.0 |
| 20260505130210 | 15 | 294 | 3.2 | 0.0 | 0.00 | 0.00 | 0.03 | 79 | 1005.2 |
| 20260505123210 | 15 | 294 | 4.8 | 0.0 | 0.00 | 0.00 | 0.03 | 81 | 1005.5 |
| 20260505120210 | 15 | 294 | 0.0 | 0.0 | 0.00 | 0.00 | 0.00 | 77 | 1005.7 |
| 20260505113210 | 16 | 294 | 6.4 | 0.0 | 0.00 | 0.00 | 0.00 | 68 | 1005.7 |
| 20260505110211 | 16 | 294 | 0.0 | 0.0 | 0.00 | 0.00 | 0.00 | 66 | 1005.4 |
| 20260505100212 | 16 | 294 | 4.8 | 0.0 | 0.00 | 0.00 | 0.00 | 72 | 1005.5 |
| 20260505093212 | 16 | 294 | 0.0 | 0.0 | 0.00 | 0.00 | 0.00 | 69 | 1005.6 |